Weather History for Montreal Mirabel, QC

Change the Weather History Date:

Wednesday, December 5, 2012

  Actual Average Record
Temperature  
Mean Temperature 37 °F -  
Max Temperature 46 °F 30 °F 50 °F (1999)
Min Temperature 26 °F 18 °F -2 °F (2014)
Degree Days  
Heating Degree Days 28    
Moisture  
Dew Point 26 °F    
Average Humidity 70    
Maximum Humidity 93    
Minimum Humidity 51    
Precipitation  
Precipitation 0.00 in - - ()
Sea Level Pressure  
Sea Level Pressure 30.04 in    
Wind  
Wind Speed 8 mph ()    
Max Wind Speed 15 mph    
Max Gust Speed 26 mph    
Visibility 14.0 miles    
Events Rain , Snow    
Averages and records for this station are not official NWS values.
T = Trace of Precipitation, MM = Missing Value Source: Averaged Metar Reports

Daily Weather History Graph

Daily Weather History Graph

Search for Another Location

Airport:

Trip Planner

Search our weather history database for the weather conditions in past years. The results will help you decide how hot, cold, wet, or windy it might be!

Date:

Astronomy

Dec. 05, 2012 Rise Set
Actual Time 7:21 AM EST 4:12 PM EST
Civil Twilight 6:47 AM EST 4:46 PM EST
Nautical Twilight 6:10 AM EST 5:23 PM EST
Astronomical Twilight 5:34 AM EST 5:59 PM EST
Moon 11:14 PM EST (12/5) 11:29 AM EST (12/5)
Length of Visible Light 9h 58m
Length of Day
8h 51m
Waning Gibbous, 60% of the Moon is Illuminated
Dec 5
Waning Gibbous
Dec 6
Last Quarter
Dec 13
New
Dec 20
First Quarter
Dec 28
Full

Hourly Weather History & Observations

Time (EST) Temp. Windchill Dew Point Humidity Pressure Visibility Wind Dir Wind Speed Gust Speed Precip Events Conditions
12:00 AM 46.4 °F 41.9 °F 44.6 °F 93% 29.81 in 8.0 mi SSW 9.2 mph - N/A Rain Light Rain
1:00 AM 46.4 °F 44.3 °F 44.6 °F 93% 29.81 in 10.0 mi WSW 4.6 mph - N/A Rain Light Rain
2:00 AM 46.4 °F 42.9 °F 44.6 °F 93% 29.81 in 15.0 mi SW 6.9 mph - N/A Rain Light Rain
3:00 AM 44.6 °F 40.7 °F 42.8 °F 93% 29.83 in 15.0 mi West 6.9 mph - N/A   Overcast
4:00 AM 41.0 °F 38.0 °F 39.2 °F 93% 29.82 in 15.0 mi West 4.6 mph - N/A   Mostly Cloudy
5:00 AM 39.2 °F 35.9 °F 37.4 °F 93% 29.85 in 15.0 mi SW 4.6 mph - N/A   Mostly Cloudy
6:00 AM 41.0 °F 35.2 °F 35.6 °F 81% 29.86 in 25.0 mi WSW 9.2 mph - N/A   Mostly Cloudy
7:00 AM 39.2 °F 32.5 °F 33.8 °F 81% 29.89 in 25.0 mi WNW 10.4 mph 18.4 mph N/A   Overcast
8:00 AM 37.4 °F 31.4 °F 30.2 °F 75% 29.91 in 45.0 mi WSW 8.1 mph - N/A   Overcast
10:00 AM 35.6 °F 26.6 °F 24.8 °F 65% 29.99 in 20.0 mi WNW 13.8 mph 19.6 mph N/A   Mostly Cloudy
10:26 AM 33.8 °F 24.3 °F 21.2 °F 60% 30.02 in 45.0 mi WNW 13.8 mph 24.2 mph N/A   Scattered Clouds
11:00 AM 33.8 °F 24.8 °F 21.2 °F 60% 30.02 in 45.0 mi NW 12.7 mph 25.3 mph N/A   Mostly Cloudy
12:00 PM 33.8 °F 23.9 °F 17.6 °F 52% 30.03 in 45.0 mi NW 15.0 mph 26.5 mph N/A   Scattered Clouds
1:00 PM 33.8 °F 25.3 °F 21.2 °F 60% 30.06 in 45.0 mi WNW 11.5 mph 21.9 mph N/A Snow Light Snow Showers
2:00 PM 30.2 °F 19.3 °F 15.8 °F 55% 30.08 in 45.0 mi NW 15.0 mph 26.5 mph N/A   Mostly Cloudy
3:00 PM 30.2 °F 20.2 °F 15.8 °F 55% 30.11 in 45.0 mi NW 12.7 mph 18.4 mph N/A Snow Light Snow Showers
4:00 PM 30.2 °F 20.8 °F 14.0 °F 51% 30.14 in 45.0 mi WNW 11.5 mph 18.4 mph N/A Snow Light Snow Showers
5:00 PM 30.2 °F 21.9 °F 15.8 °F 55% 30.17 in 25.0 mi NW 9.2 mph 17.3 mph N/A   Mostly Cloudy
6:00 PM 28.4 °F 17.0 °F 15.8 °F 59% 30.19 in 25.0 mi NNW 15.0 mph - N/A   Overcast
7:00 PM 28.4 °F 17.5 °F 15.8 °F 59% 30.22 in 25.0 mi NW 13.8 mph 20.7 mph N/A   Overcast
8:00 PM 28.4 °F 18.5 °F 15.8 °F 59% 30.24 in 25.0 mi WNW 11.5 mph - N/A   Mostly Cloudy
9:00 PM 28.4 °F 19.7 °F - N/A% 30.48 in 25.0 mi NW 9.2 mph 18.4 mph N/A   Mostly Cloudy
10:00 PM 28.4 °F 22.2 °F 14.0 °F 55% 30.27 in 25.0 mi WNW 5.8 mph - N/A   Overcast
11:00 PM 26.6 °F 20.0 °F 14.0 °F 59% 30.29 in 25.0 mi WNW 5.8 mph - N/A   Overcast